Погода в Ортахисаре

Турция     41°00′13″N   39°43′08″E
темп.,
°C
ветер,
м/с
пор.,
м/с
влажн.,
%
обл.,
%
осадки,
мм/ч
давл.,
гПа
погр.,
м
22 января, пт
пт2200:00+4ю33490 0.0 1037146
03:00+4ю33480 0.0 1036143
06:00+4ю334751 0.0 1035143
09:00+6ююз224674 0.0 1034136
12:00+8в224941 0.0 1032176
15:00+8в225369 0.0 1030156
18:00+7юв1256100 0.0 1030130
21:00+7ююз335276 0.0 1030106
23 января, сб
сб2300:00+7ююз33500 0.0 103085
03:00+7юз33510 0.0 102889
06:00+7ююз33500 0.0 102888
09:00+8ююз224910 0.0 102888
12:00+10св115087 0.0 1027128
15:00+10всв115172 0.0 1024128
18:00+8юв235985 0.0 1025109
21:00+8ююз335060 0.0 102555
24 января, вс
вс2400:00+8ююз33480 0.0 102448
03:00+8ююз33480 0.0 102347
06:00+9ююз33480 0.0 102253
09:00+10юз235148 0.0 102344
12:00+12с224941 0.0 1021117
15:00+12ссз115470 0.0 102056
18:00+10ююз2353100 0.0 102137
21:00+10ююз444599 0.0 102253
25 января, пн
пн2500:00+10ююз4445100 0.0 102354
03:00+9юз454581 0.0 102364
06:00+9ююз344561 0.0 102351
09:00+10ююз334764 0.0 102347
12:00+12всв22460 0.0 1020109
15:00+12в225133 0.0 101874
18:00+11юз2349100 0.0 101939
21:00+11ююз454394 0.0 102165
26 января, вт
вт2600:00+12ю454270 0.0 102268
03:00+11ююз564284 0.0 102271
06:00+11ююз5643100 0.0 102174
09:00+12ююз454498 0.0 102178
12:00+15з134493 0.0 1020274
15:00+14зсз134696 0.0 1019244
18:00+12юз3546100 0.0 102060
21:00+11юз4546100 0.0 102143